Preview of NWS' New Version of Forecast
This preview is not operational and should not be used for support decisions.

Regional Weather Roundup (RWR)

Issued by National Weather Service (NWS)

                            
000
ASUS45 KBOI 241910
RWRID 

IDAHO REGIONAL WEATHER ROUNDUP
NATIONAL WEATHER SERVICE BOISE ID
100 PM MDT MON JUN 24 2019

NOTE: "FAIR" INDICATES FEW OR NO CLOUDS BELOW 12000 FEET
WITH NO SIGNIFICANT WEATHER AND/OR OBSTRUCTIONS TO VISIBILITY

IDZ012-014-242000-
SOUTHWEST IDAHO

  
CITY           SKY/WX    TMP DP  RH WIND       PRES   REMARKS
BOISE          SUNNY     71  39  31 N7        29.97F                  
CALDWELL       SUNNY     69  41  36 VRB5      29.97F                  
MOUNTAIN HOME  MOSUNNY   73  35  25 N9G20     29.96F                  
$$

IDZ016-017-242000-
SOUTHCENTRAL IDAHO

  
CITY           SKY/WX    TMP DP  RH WIND       PRES   REMARKS
BURLEY         SUNNY     69  40  34 W9        29.99F                  
JEROME         SUNNY     70  39  32 W12       30.00F                  
TWIN FALLS     SUNNY     71  38  29 N8        30.01S                  
$$

IDZ019>023-242000-
SOUTHEAST IDAHO

  
CITY           SKY/WX    TMP DP  RH WIND       PRES   REMARKS
IDAHO FALLS    SUNNY     72  33  24 S24G30    29.96F                  
POCATELLO      MOSUNNY   71  36  27 SW23      30.00F                  
REXBURG        SUNNY     68  38  33 SW14G22   29.96F                  
$$

IDZ006-010-011-018-031-032-242000-
CENTRAL IDAHO MOUNTAINS

  
CITY           SKY/WX    TMP DP  RH WIND       PRES   REMARKS
MCCALL         PTSUNNY   59  32  36 CALM      29.98F                  
HAILEY         MOSUNNY   64  39  39 S13G21    30.00F                  
STANLEY          N/A     58  32  37 VRB6      30.06S                  
SALMON         CLOUDY    64  37  36 N7        29.94F                  
CHALLIS        MOSUNNY   71  31  22 W15G21    29.94F                  
$$

IDZ002-004-006-007-026-242000-
NORTHERN IDAHO

  
CITY           SKY/WX    TMP DP  RH WIND       PRES   REMARKS
LEWISTON       SUNNY     71  39  31 VRB6      29.94F                  
LOWELL           N/A     73  45  36 CALM      29.92F                  
COEUR D'ALENE  CLOUDY    61  43  51 SW5       29.97F                  
MULLAN PASS    CLOUDY    47  34  60 VRB5      30.01S                  
$$